Location: Sobotiste
(48.7170°N, 17.4000°E)
Time: 18:10:53
(UTC+02:00)

CUTE-I - Pass Details

Date: 21 March 2026
Orbit: 804 x 818 km, 98.7° (Epoch: 18 April)

Event Time Altitude Azimuth Distance (km) Brightness Sun altitude
Rises 05:13:47 0° 25° (NNE) 3,330 ? -7.0°
Reaches altitude 10° 05:16:37 10° 40° (NE) 2,395 ? -6.6°
Maximum altitude 05:20:47 23° 92° (E) 1,647 ? -5.9°
Drops below altitude 10° 05:24:57 10° 144° (SE) 2,385 ? -5.2°
Sets 05:27:44 0° 159° (SSE) 3,313 ? -4.8°
